Back to catalog

DELTA 1 R/B

CEP 1

AliveSSO
NORAD 4794·ROCKET BODY·🇺🇸 United States

Launched Dec 11, 1970 from Vandenberg Space Force Base

Loading…

Next Passes (next 24 hours)

TLE

FreshSource: Space-Track

Epoch: Sep 14, 2026, 10:09 UTC

1 04794U 70106B   26257.42307267 -.00000044  00000-0 -13811-4 0  9999
2 04794 101.3053 261.3278 0036772 171.4958 356.0821 12.53276070942595

Track DELTA 1 R/B in real time with AllMySat

Download on the App Store